Location: Newark
(41.5729°N, 14.7036°E)
Time: 09:36:51
(UTC+00:00)

OTV 5 (USA 277) - Visible Passes

Search period start: 21 October 2019 00:00
Search period end: 31 October 2019 00:00
Orbit: 310 x 324 km, 54.5° (Epoch: 17 October)

Date Brightness Start Highest point End Pass type
(mag) Time Alt. Az. Time Alt. Az. Time Alt. Az.
21 Oct ? 03:48:52 45° S 03:48:52 45° S 03:51:03 10° SE visible
22 Oct ? 04:03:45 16° SSW 04:03:45 16° SSW 04:04:47 10° S visible
27 Oct ? 16:52:35 10° SE 16:52:56 10° SE 16:53:07 10° ESE visible
28 Oct ? 17:04:52 10° SSW 17:07:15 27° SE 17:07:46 25° ESE visible
29 Oct ? 17:18:59 10° SW 17:21:42 87° SE 17:22:16 51° NE visible
30 Oct ? 17:33:47 10° WSW 17:36:18 33° NW 17:36:39 31° NNW visible
